Weather History for Tacoma, WA

Change the Weather History Date:

Thursday, October 10, 2013

  Actual Average Record
Temperature  
Mean Temperature 48 °F -  
Max Temperature 55 °F 60 °F 77 °F (1987)
Min Temperature 41 °F 41 °F 33 °F (2006)
Degree Days  
Heating Degree Days 17    
Moisture  
Dew Point 50 °F    
Average Humidity 96    
Maximum Humidity 100    
Minimum Humidity 75    
Precipitation  
Precipitation 0.04 in - - ()
Sea Level Pressure  
Sea Level Pressure 30.02 in    
Wind  
Wind Speed 3 mph (SW)    
Max Wind Speed 8 mph    
Max Gust Speed -    
Visibility 4 miles    
Events Rain    
Averages and records for this station are not official NWS values.
T = Trace of Precipitation, MM = Missing Value Source: NWS Daily Summary

Daily Weather History Graph

Daily Weather History Graph

Search for Another Location

Airport:

Trip Planner

Search our weather history database for the weather conditions in past years. The results will help you decide how hot, cold, wet, or windy it might be!

Date:

Astronomy

Oct. 10, 2013 Rise Set
Actual Time 7:21 AM PDT 6:31 PM PDT
Civil Twilight 6:50 AM PDT 7:01 PM PDT
Nautical Twilight 6:15 AM PDT 7:36 PM PDT
Astronomical Twilight 5:40 AM PDT 8:12 PM PDT
Moon 1:32 PM PDT (10/10) 11:01 PM PDT (10/10)
Length of Visible Light 12h 10m
Length of Day
11h 09m
Waxing Crescent, 37% of the Moon is Illuminated
Oct 10
Waxing Crescent
Oct 11
First Quarter
Oct 18
Full
Oct 26
Last Quarter
Nov 3
New

Hourly Weather History & Observations

Time (PDT) Temp. Windchill Dew Point Humidity Pressure Visibility Wind Dir Wind Speed Gust Speed Precip Events Conditions
12:58 AM 44.4 °F - 43.7 °F 97% 29.97 in 10.0 mi SSW 2.3 mph - N/A   Mostly Cloudy
1:58 AM 44.8 °F 43.3 °F 44.4 °F 99% 30.00 in 10.0 mi South 3.5 mph - N/A   Overcast
2:58 AM 45.1 °F 43.7 °F 44.6 °F 98% 29.98 in 10.0 mi SSE 3.5 mph - N/A   Overcast
3:58 AM 44.1 °F 42.5 °F 43.9 °F 99% 29.97 in 10.0 mi SSW 3.5 mph - N/A   Clear
4:58 AM 42.6 °F - 42.3 °F 99% 29.97 in 10.0 mi Calm Calm - N/A   Mostly Cloudy
5:58 AM 41.9 °F 40.0 °F 41.7 °F 99% 29.98 in 10.0 mi South 3.5 mph - N/A   Overcast
6:58 AM 43.7 °F - 43.2 °F 98% 29.99 in 10.0 mi SSE 1.2 mph - N/A   Overcast
7:08 AM 44.6 °F - 42.8 °F 93% 29.97 in 10.0 mi South 1.2 mph - N/A   Overcast
7:48 AM 44.6 °F - 42.8 °F 93% 29.97 in 10.0 mi Variable 2.3 mph - N/A   Overcast
7:58 AM 44.6 °F - 43.5 °F 96% 29.99 in 10.0 mi South 2.3 mph - N/A   Overcast
8:13 AM 44.6 °F - 44.6 °F 100% 29.97 in 10.0 mi SSW 2.3 mph - N/A   Overcast
8:28 AM 46.4 °F 45.2 °F 44.6 °F 93% 29.97 in 10.0 mi South 3.5 mph - N/A   Overcast
8:58 AM 46.8 °F - 45.1 °F 94% 29.99 in 10.0 mi SSW 3.5 mph - N/A   Overcast
9:58 AM 50.7 °F - 45.9 °F 83% 30.00 in 10.0 mi SSW 4.6 mph - N/A   Mostly Cloudy
10:58 AM 55.2 °F - 47.5 °F 75% 30.00 in 8.0 mi SW 5.8 mph - N/A   Overcast
11:18 AM 55.4 °F - 48.2 °F 77% 29.98 in 10.0 mi WNW 6.9 mph - N/A   Overcast
11:58 AM 55.0 °F - 47.8 °F 77% 30.01 in 10.0 mi NNW 2.3 mph - N/A   Overcast
12:58 PM 54.9 °F - 48.4 °F 79% 30.02 in 10.0 mi Variable 3.5 mph - N/A   Overcast
1:58 PM 55.0 °F - 49.5 °F 81% 30.02 in 10.0 mi Variable 2.3 mph - N/A   Overcast
2:03 PM 55.4 °F - 50.0 °F 82% 30.00 in 10.0 mi West 4.6 mph - N/A   Overcast
2:18 PM 55.4 °F - 50.0 °F 82% 29.99 in 10.0 mi WNW 2.3 mph - N/A   Overcast
2:31 PM 55.4 °F - 50.0 °F 82% 30.00 in 7.0 mi SSW 1.2 mph - N/A   Light Drizzle
2:40 PM 55.4 °F - 50.0 °F 82% 30.00 in 8.0 mi North 1.2 mph - N/A   Light Drizzle
2:41 PM 55.4 °F - 50.0 °F 82% 30.00 in 7.0 mi Variable 2.3 mph - N/A   Overcast
2:51 PM 53.6 °F - 50.0 °F 88% 30.00 in 4.0 mi West 2.3 mph - N/A   Overcast
2:55 PM 53.6 °F - 51.8 °F 94% 30.00 in 6.0 mi Calm Calm - N/A Rain Light Rain
2:58 PM 54.0 °F - 51.3 °F 91% 30.02 in 7.0 mi NNW 1.2 mph - 0.00 in Rain Light Rain
3:01 PM 53.6 °F - 51.8 °F 94% 30.00 in 6.0 mi Variable 2.3 mph - N/A   Overcast
3:04 PM 53.6 °F - 51.8 °F 94% 30.00 in 5.0 mi West 2.3 mph - N/A Rain Light Rain
3:09 PM 53.6 °F - 51.8 °F 94% 30.00 in 4.0 mi WSW 3.5 mph - N/A   Light Drizzle
3:19 PM 53.6 °F - 51.8 °F 94% 30.00 in 4.0 mi Variable 4.6 mph - N/A Rain Light Rain
3:24 PM 53.6 °F - 51.8 °F 94% 30.00 in 2.5 mi WSW 3.5 mph - N/A Rain Light Rain
3:29 PM 53.6 °F - 51.8 °F 94% 30.01 in 2.0 mi WSW 3.5 mph - N/A Rain Light Rain
3:34 PM 53.6 °F - 53.6 °F 100% 30.01 in 2.5 mi SW 3.5 mph - N/A Rain Light Rain
3:39 PM 53.6 °F - 53.6 °F 100% 30.01 in 3.0 mi SW 3.5 mph - N/A Rain Light Rain
3:49 PM 53.6 °F - 51.8 °F 94% 30.01 in 2.0 mi Variable 1.2 mph - N/A Rain Light Rain
3:54 PM 53.6 °F - 51.8 °F 94% 30.01 in 1.5 mi SW 1.2 mph - N/A   Light Drizzle
3:58 PM 53.2 °F - 52.7 °F 98% 30.03 in 1.2 mi SW 2.3 mph - 0.01 in Rain Light Rain
4:03 PM 53.6 °F - 53.6 °F 100% 30.01 in 1.2 mi Variable 4.6 mph - N/A Rain Light Rain
4:08 PM 53.6 °F - 51.8 °F 94% 30.01 in 1.2 mi WSW 3.5 mph - N/A   Overcast
4:12 PM 53.6 °F - 51.8 °F 94% 30.01 in 1.5 mi West 3.5 mph - N/A   Light Drizzle
4:17 PM 53.6 °F - 51.8 °F 94% 30.01 in 1.8 mi West 2.3 mph - N/A   Light Drizzle
4:27 PM 53.6 °F - 51.8 °F 94% 30.01 in 2.0 mi WSW 4.6 mph - N/A   Overcast
4:37 PM 53.6 °F - 51.8 °F 94% 30.01 in 2.5 mi WSW 4.6 mph - N/A   Overcast
4:47 PM 53.6 °F - 51.8 °F 94% 30.01 in 3.0 mi WSW 3.5 mph - N/A   Overcast
4:57 PM 53.6 °F - 53.6 °F 100% 30.01 in 4.0 mi SW 2.3 mph - N/A   Overcast
4:58 PM 53.1 °F - 52.9 °F 99% 30.03 in 4.0 mi SSW 2.3 mph - 0.02 in   Overcast
5:18 PM 53.6 °F - 53.6 °F 100% 30.01 in 4.0 mi SW 2.3 mph - N/A   Overcast
5:28 PM 53.6 °F - 53.6 °F 100% 30.01 in 4.0 mi SW 2.3 mph - N/A   Overcast
5:43 PM 53.6 °F - 53.6 °F 100% 30.01 in 3.0 mi West 1.2 mph - N/A   Overcast
5:56 PM 51.8 °F - 51.8 °F 100% 30.01 in 4.0 mi North 6.9 mph - N/A   Overcast
5:58 PM 51.8 °F - 51.8 °F 100% 30.03 in 5.0 mi North 6.9 mph - N/A   Overcast
6:00 PM 51.8 °F - 51.8 °F 100% 30.01 in 5.0 mi North 6.9 mph - N/A   Overcast
6:05 PM 51.8 °F - 51.8 °F 100% 30.01 in 8.0 mi North 8.1 mph - N/A   Overcast
6:10 PM 51.8 °F - 51.8 °F 100% 30.02 in 8.0 mi NNE 5.8 mph - N/A   Overcast
6:30 PM 51.8 °F - 51.8 °F 100% 30.02 in 5.0 mi NE 3.5 mph - N/A   Overcast
6:40 PM 51.8 °F - 50.0 °F 94% 30.02 in 4.0 mi NE 1.2 mph - N/A   Overcast
6:45 PM 50.0 °F - 50.0 °F 100% 30.02 in 4.0 mi NE 1.2 mph - N/A   Overcast
6:55 PM 50.0 °F - 50.0 °F 100% 30.03 in 4.0 mi NNE 2.3 mph - N/A   Overcast
6:58 PM 50.5 °F - 50.4 °F 99% 30.05 in 4.0 mi NNE 2.3 mph - N/A   Overcast
7:03 PM 50.0 °F - 50.0 °F 100% 30.03 in 2.5 mi Calm Calm - N/A   Overcast
7:08 PM 50.0 °F - 50.0 °F 100% 30.03 in 2.0 mi ENE 1.2 mph - N/A   Overcast
7:13 PM 50.0 °F - 50.0 °F 100% 30.03 in 2.0 mi NE 1.2 mph - N/A   Overcast
7:18 PM 50.0 °F - 50.0 °F 100% 30.03 in 2.5 mi Variable 1.2 mph - N/A   Overcast
7:23 PM 50.0 °F - 50.0 °F 100% 30.03 in 2.0 mi Calm Calm - N/A   Overcast
7:28 PM 50.0 °F - 50.0 °F 100% 30.03 in 2.0 mi Variable 1.2 mph - N/A   Overcast
7:33 PM 50.0 °F - 50.0 °F 100% 30.03 in 2.0 mi ENE 2.3 mph - N/A   Overcast
7:38 PM 50.0 °F - 50.0 °F 100% 30.03 in 2.0 mi East 2.3 mph - N/A   Overcast
7:43 PM 50.0 °F - 50.0 °F 100% 30.03 in 2.0 mi Calm Calm - N/A   Overcast
7:58 PM 50.4 °F - 50.0 °F 99% 30.05 in 2.0 mi East 2.3 mph - N/A   Overcast
8:08 PM 50.0 °F - 50.0 °F 100% 30.03 in 1.8 mi SSE 2.3 mph - N/A   Overcast
8:13 PM 50.0 °F - 50.0 °F 100% 30.03 in 1.8 mi Calm Calm - N/A   Overcast
8:18 PM 50.0 °F - 50.0 °F 100% 30.03 in 2.0 mi Calm Calm - N/A   Overcast
8:28 PM 50.0 °F - 50.0 °F 100% 30.03 in 2.0 mi Calm Calm - N/A   Overcast
8:33 PM 50.0 °F - 50.0 °F 100% 30.03 in 2.0 mi SSE 2.3 mph - N/A   Overcast
8:58 PM 50.2 °F - 49.8 °F 99% 30.06 in 2.0 mi Variable 2.3 mph - N/A   Overcast
9:02 PM 50.0 °F - 50.0 °F 100% 30.04 in 2.0 mi ESE 1.2 mph - N/A Rain Light Rain
9:12 PM 50.0 °F - 50.0 °F 100% 30.05 in 2.0 mi Calm Calm - N/A   Overcast
9:17 PM 50.0 °F - 50.0 °F 100% 30.05 in 2.5 mi WSW 3.5 mph - N/A   Overcast
9:21 PM 50.0 °F - 50.0 °F 100% 30.05 in 2.0 mi WSW 4.6 mph - N/A   Overcast
9:26 PM 50.0 °F - 50.0 °F 100% 30.05 in 1.8 mi South 3.5 mph - N/A   Overcast
9:33 PM 50.0 °F - 50.0 °F 100% 30.05 in 1.8 mi SSE 2.3 mph - N/A Rain Light Rain
9:38 PM 50.0 °F - 50.0 °F 100% 30.05 in 1.8 mi SSE 1.2 mph - N/A Rain Light Rain
9:48 PM 50.0 °F - 50.0 °F 100% 30.05 in 2.0 mi ESE 2.3 mph - N/A Rain Light Rain
9:54 PM 50.0 °F - 50.0 °F 100% 30.05 in 2.0 mi South 1.2 mph - N/A   Overcast
9:57 PM 50.0 °F - 50.0 °F 100% 30.05 in 2.0 mi South 1.2 mph - N/A   Light Drizzle
9:58 PM 50.0 °F - 50.0 °F 100% 30.06 in 2.0 mi Calm Calm - 0.01 in   Light Drizzle
10:03 PM 50.0 °F - 50.0 °F 100% 30.05 in 2.0 mi Calm Calm - N/A   Light Drizzle
10:06 PM 50.0 °F - 50.0 °F 100% 30.06 in 2.0 mi Calm Calm - N/A   Overcast
10:11 PM 50.0 °F - 50.0 °F 100% 30.06 in 2.5 mi Calm Calm - N/A   Overcast
10:21 PM 50.0 °F - 50.0 °F 100% 30.06 in 2.5 mi North 2.3 mph - N/A   Overcast
10:26 PM 50.0 °F - 50.0 °F 100% 30.06 in 2.5 mi North 2.3 mph - N/A   Overcast
10:31 PM 50.0 °F - 50.0 °F 100% 30.06 in 2.0 mi NNE 2.3 mph - N/A   Overcast
10:41 PM 50.0 °F - 50.0 °F 100% 30.06 in 2.0 mi Calm Calm - N/A   Overcast
10:46 PM 50.0 °F - 50.0 °F 100% 30.07 in 2.0 mi Calm Calm - N/A   Overcast
10:51 PM 50.0 °F - 50.0 °F 100% 30.07 in 1.8 mi Calm Calm - N/A   Overcast
10:58 PM 50.9 °F - 50.5 °F 99% 30.09 in 1.8 mi South 2.3 mph - 0.00 in   Overcast
11:03 PM 50.0 °F - 50.0 °F 100% 30.07 in 1.8 mi South 3.5 mph - N/A   Overcast
11:13 PM 50.0 °F - 50.0 °F 100% 30.07 in 2.0 mi South 3.5 mph - N/A   Overcast
11:18 PM 50.0 °F - 50.0 °F 100% 30.07 in 1.8 mi South 3.5 mph - N/A   Overcast
11:28 PM 50.0 °F - 50.0 °F 100% 30.08 in 1.8 mi SSW 2.3 mph - N/A   Overcast
11:33 PM 50.0 °F - 50.0 °F 100% 30.08 in 2.0 mi SSW 3.5 mph - N/A   Overcast
11:48 PM 50.0 °F - 50.0 °F 100% 30.08 in 2.5 mi SW 2.3 mph - N/A   Overcast
11:53 PM 51.8 °F - 50.0 °F 94% 30.08 in 3.0 mi Variable 2.3 mph - N/A   Overcast
11:58 PM 51.1 °F - 50.7 °F 99% 30.09 in 4.0 mi WSW 3.5 mph - N/A   Overcast